Year,Month,Day,Hour,Minute,Value (Times are PST for temperature in C)
2009,05,30,00,00,10.80
2009,05,30,00,01,10.80
2009,05,30,00,02,10.80
2009,05,30,00,03,10.80
2009,05,30,00,04,10.80
2009,05,30,00,05,10.80
2009,05,30,00,06,10.80
2009,05,30,00,07,10.70
2009,05,30,00,08,10.70
2009,05,30,00,09,10.70
2009,05,30,00,10,10.70
2009,05,30,00,11,10.70
2009,05,30,00,12,10.60
2009,05,30,00,13,10.60
2009,05,30,00,14,10.60
2009,05,30,00,15,10.60
2009,05,30,00,16,10.50
2009,05,30,00,17,10.50
2009,05,30,00,18,10.40
2009,05,30,00,19,10.40
2009,05,30,00,20,10.40
2009,05,30,00,21,10.40
2009,05,30,00,22,10.30
2009,05,30,00,23,10.30
2009,05,30,00,24,10.30
2009,05,30,00,25,10.20
2009,05,30,00,26,10.20
2009,05,30,00,27,10.20
2009,05,30,00,28,10.10
2009,05,30,00,29,10.10
2009,05,30,00,30,10.10
2009,05,30,00,31,10.10
2009,05,30,00,32,10.00
2009,05,30,00,33,10.00
2009,05,30,00,34,10.00
2009,05,30,00,35,9.90
2009,05,30,00,36,9.90
2009,05,30,00,37,9.90
2009,05,30,00,38,9.90
2009,05,30,00,39,9.90
2009,05,30,00,40,9.90
2009,05,30,00,41,9.90
2009,05,30,00,42,9.90
2009,05,30,00,43,9.80
2009,05,30,00,44,9.80
2009,05,30,00,45,9.80
2009,05,30,00,46,9.80
2009,05,30,00,47,9.70
2009,05,30,00,48,9.70
2009,05,30,00,49,9.70
2009,05,30,00,50,9.70
2009,05,30,00,51,9.70
2009,05,30,00,52,9.60
2009,05,30,00,53,9.60
2009,05,30,00,54,9.60
2009,05,30,00,55,9.60
2009,05,30,00,56,9.60
2009,05,30,00,57,9.60
2009,05,30,00,58,9.60
2009,05,30,00,59,9.60
2009,05,30,01,00,9.60
2009,05,30,01,01,9.60
2009,05,30,01,02,9.60
2009,05,30,01,03,9.50
2009,05,30,01,04,9.50
2009,05,30,01,05,9.50
2009,05,30,01,06,9.50
2009,05,30,01,07,9.50
2009,05,30,01,08,9.40
2009,05,30,01,09,9.40
2009,05,30,01,10,9.40
2009,05,30,01,11,9.40
2009,05,30,01,12,9.40
2009,05,30,01,13,9.40
2009,05,30,01,14,9.30
2009,05,30,01,15,9.30
2009,05,30,01,16,9.30
2009,05,30,01,17,9.30
2009,05,30,01,18,9.30
2009,05,30,01,19,9.20
2009,05,30,01,20,9.20
2009,05,30,01,21,9.20
2009,05,30,01,22,9.20
2009,05,30,01,23,9.20
2009,05,30,01,24,9.20
2009,05,30,01,25,9.10
2009,05,30,01,26,9.10
2009,05,30,01,27,9.10
2009,05,30,01,28,9.10
2009,05,30,01,29,9.10
2009,05,30,01,30,9.10
2009,05,30,01,31,9.00
2009,05,30,01,32,9.00
2009,05,30,01,33,9.00
2009,05,30,01,34,9.00
2009,05,30,01,35,8.90
2009,05,30,01,36,8.90
2009,05,30,01,37,8.90
2009,05,30,01,38,8.90
2009,05,30,01,39,8.80
2009,05,30,01,40,8.80
2009,05,30,01,41,8.80
2009,05,30,01,42,8.80
2009,05,30,01,43,8.80
2009,05,30,01,44,8.80
2009,05,30,01,45,8.80
2009,05,30,01,46,8.70
2009,05,30,01,47,8.70
2009,05,30,01,48,8.70
2009,05,30,01,49,8.70
2009,05,30,01,50,8.70
2009,05,30,01,51,8.70
2009,05,30,01,52,8.70
2009,05,30,01,53,8.60
2009,05,30,01,54,8.60
2009,05,30,01,55,8.60
2009,05,30,01,56,8.60
2009,05,30,01,57,8.60
2009,05,30,01,58,8.60
2009,05,30,01,59,8.60
2009,05,30,02,00,8.60
2009,05,30,02,01,8.60
2009,05,30,02,02,8.60
2009,05,30,02,03,8.60
2009,05,30,02,04,8.60
2009,05,30,02,05,8.60
2009,05,30,02,06,8.60
2009,05,30,02,07,8.60
2009,05,30,02,08,8.50
2009,05,30,02,09,8.50
2009,05,30,02,10,8.50
2009,05,30,02,11,8.50
2009,05,30,02,12,8.40
2009,05,30,02,13,8.40
2009,05,30,02,14,8.40
2009,05,30,02,15,8.40
2009,05,30,02,16,8.40
2009,05,30,02,17,8.40
2009,05,30,02,18,8.30
2009,05,30,02,19,8.30
2009,05,30,02,20,8.30
2009,05,30,02,21,8.30
2009,05,30,02,22,8.30
2009,05,30,02,23,8.30
2009,05,30,02,24,8.30
2009,05,30,02,25,8.20
2009,05,30,02,26,8.20
2009,05,30,02,27,8.20
2009,05,30,02,28,8.20
2009,05,30,02,29,8.20
2009,05,30,02,30,8.20
2009,05,30,02,31,8.20
2009,05,30,02,32,8.20
2009,05,30,02,33,8.10
2009,05,30,02,34,8.10
2009,05,30,02,35,8.10
2009,05,30,02,36,8.10
2009,05,30,02,37,8.10
2009,05,30,02,38,8.10
2009,05,30,02,39,8.10
2009,05,30,02,40,8.00
2009,05,30,02,41,8.00
2009,05,30,02,42,8.00
2009,05,30,02,43,8.00
2009,05,30,02,44,8.00
2009,05,30,02,45,8.00
2009,05,30,02,46,8.00
2009,05,30,02,47,7.90
2009,05,30,02,48,7.90
2009,05,30,02,49,7.90
2009,05,30,02,50,7.90
2009,05,30,02,51,7.90
2009,05,30,02,52,7.90
2009,05,30,02,53,7.90
2009,05,30,02,54,7.90
2009,05,30,02,55,7.90
2009,05,30,02,56,7.80
2009,05,30,02,57,7.80
2009,05,30,02,58,7.80
2009,05,30,02,59,7.80
2009,05,30,03,00,7.80
2009,05,30,03,01,7.80
2009,05,30,03,02,7.80
2009,05,30,03,03,7.70
2009,05,30,03,04,7.70
2009,05,30,03,05,7.70
2009,05,30,03,06,7.70
2009,05,30,03,07,7.70
2009,05,30,03,08,7.70
2009,05,30,03,09,7.70
2009,05,30,03,10,7.70
2009,05,30,03,11,7.70
2009,05,30,03,12,7.60
2009,05,30,03,13,7.60
2009,05,30,03,14,7.60
2009,05,30,03,15,7.60
2009,05,30,03,16,7.60
2009,05,30,03,17,7.60
2009,05,30,03,18,7.50
2009,05,30,03,19,7.50
2009,05,30,03,20,7.50
2009,05,30,03,21,7.50
2009,05,30,03,22,7.50
2009,05,30,03,23,7.40
2009,05,30,03,24,7.40
2009,05,30,03,25,7.40
2009,05,30,03,26,7.40
2009,05,30,03,27,7.40
2009,05,30,03,28,7.40
2009,05,30,03,29,7.40
2009,05,30,03,30,7.30
2009,05,30,03,31,7.30
2009,05,30,03,32,7.30
2009,05,30,03,33,7.30
2009,05,30,03,34,7.30
2009,05,30,03,35,7.30
2009,05,30,03,36,7.30
2009,05,30,03,37,7.30
2009,05,30,03,38,7.30
2009,05,30,03,39,7.30
2009,05,30,03,40,7.30
2009,05,30,03,41,7.20
2009,05,30,03,42,7.20
2009,05,30,03,43,7.20
2009,05,30,03,44,7.20
2009,05,30,03,45,7.20
2009,05,30,03,46,7.20
2009,05,30,03,47,7.20
2009,05,30,03,48,7.20
2009,05,30,03,49,7.20
2009,05,30,03,50,7.20
2009,05,30,03,51,7.20
2009,05,30,03,52,7.20
2009,05,30,03,53,7.20
2009,05,30,03,54,7.20
2009,05,30,03,55,7.20
2009,05,30,03,56,7.20
2009,05,30,03,57,7.20
2009,05,30,03,58,7.20
2009,05,30,03,59,7.20
2009,05,30,04,00,7.20
2009,05,30,04,01,7.20
2009,05,30,04,02,7.20
2009,05,30,04,03,7.20
2009,05,30,04,04,7.10
2009,05,30,04,05,7.10
2009,05,30,04,18,6.90
2009,05,30,04,23,6.90
2009,05,30,04,24,6.90
2009,05,30,04,25,6.90
2009,05,30,04,26,6.90
2009,05,30,04,27,6.90
2009,05,30,04,28,6.90
2009,05,30,04,29,6.90
2009,05,30,04,30,6.90
2009,05,30,04,31,6.90
2009,05,30,04,32,6.90
2009,05,30,04,33,6.80
2009,05,30,04,34,6.80
2009,05,30,04,35,6.80
2009,05,30,04,36,6.80
2009,05,30,04,37,6.80
2009,05,30,04,38,6.80
2009,05,30,04,39,6.80
2009,05,30,04,40,6.80
2009,05,30,04,41,6.80
2009,05,30,04,42,6.80
2009,05,30,04,43,6.80
2009,05,30,04,44,6.80
2009,05,30,04,45,6.80
2009,05,30,04,46,6.80
2009,05,30,04,47,6.80
2009,05,30,04,48,6.80
2009,05,30,04,49,6.80
2009,05,30,04,50,6.80
2009,05,30,04,51,6.80
2009,05,30,04,52,6.80
2009,05,30,04,53,6.80
2009,05,30,04,54,6.80
2009,05,30,04,55,6.80
2009,05,30,04,56,6.80
2009,05,30,04,57,6.80
2009,05,30,04,58,6.80
2009,05,30,04,59,6.80
2009,05,30,05,00,6.80
2009,05,30,05,01,6.80
2009,05,30,05,02,6.80
2009,05,30,05,03,6.80
2009,05,30,05,04,6.80
2009,05,30,05,05,6.80
2009,05,30,05,06,6.80
2009,05,30,05,07,6.80
2009,05,30,05,08,6.80
2009,05,30,05,09,6.80
2009,05,30,05,10,6.80
2009,05,30,05,11,6.80
2009,05,30,05,12,6.80
2009,05,30,05,13,6.80
2009,05,30,05,14,6.80
2009,05,30,05,15,6.80
2009,05,30,05,16,6.70
2009,05,30,05,17,6.70
2009,05,30,05,18,6.70
2009,05,30,05,19,6.70
2009,05,30,05,20,6.70
2009,05,30,05,21,6.70
2009,05,30,05,22,6.70
2009,05,30,05,23,6.70
2009,05,30,05,24,6.70
2009,05,30,05,25,6.70
2009,05,30,05,26,6.70
2009,05,30,05,27,6.70
2009,05,30,05,28,6.70
2009,05,30,05,29,6.70
2009,05,30,05,30,6.70
2009,05,30,05,31,6.70
2009,05,30,05,32,6.70
2009,05,30,05,33,6.70
2009,05,30,05,34,6.70
2009,05,30,05,35,6.70
2009,05,30,05,36,6.70
2009,05,30,05,37,6.70
2009,05,30,05,38,6.70
2009,05,30,05,39,6.70
2009,05,30,05,40,6.60
2009,05,30,05,41,6.70
2009,05,30,05,42,6.70
2009,05,30,05,43,6.70
2009,05,30,05,44,6.70
2009,05,30,05,45,6.70
2009,05,30,05,46,6.70
2009,05,30,05,47,6.70
2009,05,30,05,48,6.70
2009,05,30,05,49,6.70
2009,05,30,05,50,6.70
2009,05,30,05,51,6.70
2009,05,30,05,52,6.70
2009,05,30,05,53,6.70
2009,05,30,05,54,6.70
2009,05,30,05,55,6.70
2009,05,30,05,56,6.70
2009,05,30,05,57,6.70
2009,05,30,05,58,6.70
2009,05,30,05,59,6.70
2009,05,30,06,00,6.70
2009,05,30,06,01,6.70
2009,05,30,06,02,6.70
2009,05,30,06,03,6.70
2009,05,30,06,04,6.70
2009,05,30,06,05,6.70
2009,05,30,06,06,6.70
2009,05,30,06,07,6.80
2009,05,30,06,08,6.80
2009,05,30,06,09,6.80
2009,05,30,06,10,6.80
2009,05,30,06,11,6.80
2009,05,30,06,12,6.80
2009,05,30,06,13,6.80
2009,05,30,06,14,6.80
2009,05,30,06,15,6.80
2009,05,30,06,16,6.80
2009,05,30,06,17,6.90
2009,05,30,06,18,6.90
2009,05,30,06,19,6.90
2009,05,30,06,20,6.90
2009,05,30,06,21,6.90
2009,05,30,06,22,6.90
2009,05,30,06,23,6.90
2009,05,30,06,24,6.90
2009,05,30,06,25,6.90
2009,05,30,06,26,6.90
2009,05,30,06,27,7.00
2009,05,30,06,28,7.00
2009,05,30,06,29,7.00
2009,05,30,06,30,7.10
2009,05,30,06,31,7.10
2009,05,30,06,32,7.10
2009,05,30,06,33,7.10
2009,05,30,06,34,7.20
2009,05,30,06,35,7.20
2009,05,30,06,36,7.20
2009,05,30,06,37,7.20
2009,05,30,06,38,7.20
2009,05,30,06,39,7.20
2009,05,30,06,40,7.30
2009,05,30,06,41,7.30
2009,05,30,06,42,7.30
2009,05,30,06,43,7.40
2009,05,30,06,44,7.40
2009,05,30,06,45,7.40
2009,05,30,06,46,7.50
2009,05,30,06,47,7.50
2009,05,30,06,48,7.60
2009,05,30,06,49,7.60
2009,05,30,06,50,7.60
2009,05,30,06,51,7.70
2009,05,30,06,52,7.70
2009,05,30,06,53,7.80
2009,05,30,06,54,7.80
2009,05,30,06,55,7.80
2009,05,30,06,56,7.90
2009,05,30,06,57,7.90
2009,05,30,06,58,8.00
2009,05,30,06,59,8.00
2009,05,30,07,00,8.10
2009,05,30,07,01,8.10
2009,05,30,07,02,8.20
2009,05,30,07,03,8.20
2009,05,30,07,04,8.20
2009,05,30,07,05,8.30
2009,05,30,07,06,8.30
2009,05,30,07,07,8.30
2009,05,30,07,08,8.40
2009,05,30,07,09,8.50
2009,05,30,07,10,8.50
2009,05,30,07,11,8.60
2009,05,30,07,12,8.60
2009,05,30,07,13,8.70
2009,05,30,07,14,8.70
2009,05,30,07,15,8.80
2009,05,30,07,16,8.80
2009,05,30,07,17,8.90
2009,05,30,07,18,8.90
2009,05,30,07,19,9.00
2009,05,30,07,20,9.10
2009,05,30,07,21,9.20
2009,05,30,07,22,9.30
2009,05,30,07,23,9.40
2009,05,30,07,24,9.50
2009,05,30,07,25,9.60
2009,05,30,07,26,9.80
2009,05,30,07,27,9.90
2009,05,30,07,28,10.10
2009,05,30,07,29,10.20
2009,05,30,07,30,10.40
2009,05,30,07,31,10.60
2009,05,30,07,32,10.80
2009,05,30,07,33,10.90
2009,05,30,07,34,11.10
2009,05,30,07,35,11.30
2009,05,30,07,36,11.40
2009,05,30,07,37,11.60
2009,05,30,07,38,11.80
2009,05,30,07,39,11.90
2009,05,30,07,40,12.10
2009,05,30,07,41,12.20
2009,05,30,07,42,12.40
2009,05,30,07,43,12.50
2009,05,30,07,44,12.70
2009,05,30,07,45,12.80
2009,05,30,07,46,13.00
2009,05,30,07,47,13.10
2009,05,30,07,48,13.30
2009,05,30,07,49,13.50
2009,05,30,07,50,13.60
2009,05,30,07,51,13.70
2009,05,30,07,52,13.80
2009,05,30,07,53,14.00
2009,05,30,07,54,14.10
2009,05,30,07,55,14.20
2009,05,30,07,56,14.30
2009,05,30,07,57,14.40
2009,05,30,07,58,14.50
2009,05,30,07,59,14.60
2009,05,30,08,00,14.60
2009,05,30,08,01,14.60
2009,05,30,08,02,14.90
2009,05,30,08,03,15.10
2009,05,30,08,04,15.30
2009,05,30,08,05,15.40
2009,05,30,08,06,15.50
2009,05,30,08,07,15.60
2009,05,30,08,08,15.70
2009,05,30,08,09,15.80
2009,05,30,08,10,15.90
2009,05,30,08,11,16.00
2009,05,30,08,12,16.10
2009,05,30,08,13,16.20
2009,05,30,08,14,16.30
2009,05,30,08,15,16.50
2009,05,30,08,16,16.50
2009,05,30,08,17,16.60
2009,05,30,08,18,16.70
2009,05,30,08,19,16.70
2009,05,30,08,20,16.80
2009,05,30,08,21,16.90
2009,05,30,08,22,17.00
2009,05,30,08,23,17.10
2009,05,30,08,24,17.20
2009,05,30,08,25,17.30
2009,05,30,08,26,17.40
2009,05,30,08,27,17.50
2009,05,30,08,28,17.60
2009,05,30,08,29,17.60
2009,05,30,08,30,17.50
2009,05,30,08,31,17.50
2009,05,30,08,32,17.50
2009,05,30,08,33,17.50
2009,05,30,08,34,17.40
2009,05,30,08,35,17.40
2009,05,30,08,36,17.40
2009,05,30,08,37,17.30
2009,05,30,08,38,17.20
2009,05,30,08,39,17.20
2009,05,30,08,40,17.20
2009,05,30,08,41,17.10
2009,05,30,08,42,17.10
2009,05,30,08,43,17.10
2009,05,30,08,44,17.10
2009,05,30,08,45,17.20
2009,05,30,08,46,17.10
2009,05,30,08,47,17.10
2009,05,30,08,48,17.10
2009,05,30,08,49,17.00
2009,05,30,08,50,17.10
2009,05,30,08,51,17.10
2009,05,30,08,52,17.10
2009,05,30,08,53,17.10
2009,05,30,08,54,17.20
2009,05,30,08,55,17.20
2009,05,30,08,56,17.20
2009,05,30,08,57,17.20
2009,05,30,08,58,17.20
2009,05,30,08,59,17.20
2009,05,30,09,00,17.20
2009,05,30,09,01,17.20
2009,05,30,09,02,17.20
2009,05,30,09,03,17.20
2009,05,30,09,04,17.20
2009,05,30,09,05,17.10
2009,05,30,09,06,17.10
2009,05,30,09,07,17.10
2009,05,30,09,08,17.10
2009,05,30,09,09,17.10
2009,05,30,09,10,17.10
2009,05,30,09,11,17.10
2009,05,30,09,12,17.10
2009,05,30,09,13,17.10
2009,05,30,09,14,17.10
2009,05,30,09,15,17.20
2009,05,30,09,16,17.20
2009,05,30,09,17,17.20
2009,05,30,09,18,17.10
2009,05,30,09,19,17.00
2009,05,30,09,20,17.00
2009,05,30,09,21,16.90
2009,05,30,09,22,16.80
2009,05,30,09,23,16.70
2009,05,30,09,24,16.70
2009,05,30,09,25,16.70
2009,05,30,09,26,16.70
2009,05,30,09,27,16.80
2009,05,30,09,28,16.80
2009,05,30,09,29,16.90
2009,05,30,09,30,17.00
2009,05,30,09,31,17.00
2009,05,30,09,32,17.10
2009,05,30,09,33,17.10
2009,05,30,09,34,17.10
2009,05,30,09,35,17.10
2009,05,30,09,36,17.10
2009,05,30,09,37,17.00
2009,05,30,09,38,17.00
2009,05,30,09,39,17.00
2009,05,30,09,40,16.90
2009,05,30,09,41,17.00
2009,05,30,09,42,16.90
2009,05,30,09,43,16.90
2009,05,30,09,44,16.90
2009,05,30,09,45,16.90
2009,05,30,09,46,16.90
2009,05,30,09,47,16.90
2009,05,30,09,48,17.00
2009,05,30,09,49,17.00
2009,05,30,09,50,17.00
2009,05,30,09,51,17.10
2009,05,30,09,52,17.10
2009,05,30,09,53,17.10
2009,05,30,09,54,17.20
2009,05,30,09,55,17.20
2009,05,30,09,56,17.20
2009,05,30,09,57,17.20
2009,05,30,09,58,17.20
2009,05,30,09,59,17.20
2009,05,30,10,00,17.30
2009,05,30,10,01,17.40
2009,05,30,10,02,17.40
2009,05,30,10,03,17.50
2009,05,30,10,04,17.50
2009,05,30,10,05,17.40
2009,05,30,10,06,17.40
2009,05,30,10,07,17.40
2009,05,30,10,08,17.30
2009,05,30,10,09,17.30
2009,05,30,10,10,17.30
2009,05,30,10,11,17.40
2009,05,30,10,12,17.50
2009,05,30,10,13,17.40
2009,05,30,10,14,17.40
2009,05,30,10,15,17.40
2009,05,30,10,16,17.40
2009,05,30,10,17,17.50
2009,05,30,10,18,17.60
2009,05,30,10,19,17.70
2009,05,30,10,20,17.70
2009,05,30,10,21,17.80
2009,05,30,10,22,17.80
2009,05,30,10,23,17.80
2009,05,30,10,24,17.90
2009,05,30,10,25,18.00
2009,05,30,10,26,18.00
2009,05,30,10,27,18.00
2009,05,30,10,28,17.80
2009,05,30,10,29,17.70
2009,05,30,10,30,17.70
2009,05,30,10,31,17.70
2009,05,30,10,32,17.70
2009,05,30,10,33,17.60
2009,05,30,10,34,17.50
2009,05,30,10,35,17.50
2009,05,30,10,36,17.40
2009,05,30,10,37,17.40
2009,05,30,10,38,17.50
2009,05,30,10,39,17.50
2009,05,30,10,40,17.50
2009,05,30,10,41,17.50
2009,05,30,10,42,17.50
2009,05,30,10,43,17.60
2009,05,30,10,44,17.60
2009,05,30,10,45,17.50
2009,05,30,10,46,17.50
2009,05,30,10,47,17.40
2009,05,30,10,48,17.40
2009,05,30,10,49,17.40
2009,05,30,10,50,17.50
2009,05,30,10,51,17.70
2009,05,30,10,52,17.80
2009,05,30,10,53,17.90
2009,05,30,10,54,18.00
2009,05,30,10,55,18.00
2009,05,30,10,56,18.10
2009,05,30,10,57,18.10
2009,05,30,10,58,18.20
2009,05,30,10,59,18.20
2009,05,30,11,00,18.10
2009,05,30,11,01,18.00
2009,05,30,11,02,17.90
2009,05,30,11,03,17.90
2009,05,30,11,04,17.90
2009,05,30,11,05,18.00
2009,05,30,11,06,18.10
2009,05,30,11,07,18.10
2009,05,30,11,08,18.10
2009,05,30,11,09,18.20
2009,05,30,11,10,18.20
2009,05,30,11,11,18.20
2009,05,30,11,12,18.20
2009,05,30,11,13,18.20
2009,05,30,11,14,18.20
2009,05,30,11,15,18.20
2009,05,30,11,16,18.20
2009,05,30,11,17,18.20
2009,05,30,11,18,18.30
2009,05,30,11,19,18.30
2009,05,30,11,20,18.40
2009,05,30,11,21,18.40
2009,05,30,11,22,18.50
2009,05,30,11,23,18.50
2009,05,30,11,24,18.60
2009,05,30,11,25,18.70
2009,05,30,11,26,18.90
2009,05,30,11,27,19.00
2009,05,30,11,28,19.10
2009,05,30,11,29,19.20
2009,05,30,11,30,19.20
2009,05,30,11,31,19.20
2009,05,30,11,32,19.20
2009,05,30,11,33,19.30
2009,05,30,11,34,19.40
2009,05,30,11,35,19.40
2009,05,30,11,36,19.50
2009,05,30,11,37,19.50
2009,05,30,11,38,19.60
2009,05,30,11,39,19.60
2009,05,30,11,40,19.50
2009,05,30,11,41,19.50
2009,05,30,11,42,19.60
2009,05,30,11,43,19.70
2009,05,30,11,44,19.70
2009,05,30,11,45,19.80
2009,05,30,11,46,19.80
2009,05,30,11,47,19.90
2009,05,30,11,48,20.10
2009,05,30,11,49,20.30
2009,05,30,11,50,20.40
2009,05,30,11,51,20.50
2009,05,30,11,52,20.60
2009,05,30,11,53,20.70
2009,05,30,11,54,20.80
2009,05,30,11,55,20.80
2009,05,30,11,56,20.80
2009,05,30,11,57,20.90
2009,05,30,11,58,20.90
2009,05,30,11,59,21.00
2009,05,30,12,00,21.10
2009,05,30,12,01,21.10
2009,05,30,12,02,21.10
2009,05,30,12,03,21.00
2009,05,30,12,04,20.90
2009,05,30,12,05,20.90
2009,05,30,12,06,20.90
2009,05,30,12,07,20.80
2009,05,30,12,08,20.60
2009,05,30,12,09,20.50
2009,05,30,12,10,20.40
2009,05,30,12,11,20.20
2009,05,30,12,12,20.20
2009,05,30,12,13,20.20
2009,05,30,12,14,20.20
2009,05,30,12,15,20.30
2009,05,30,12,16,20.30
2009,05,30,12,17,20.30
2009,05,30,12,18,20.40
2009,05,30,12,19,20.50
2009,05,30,12,20,20.50
2009,05,30,12,21,20.40
2009,05,30,12,22,20.30
2009,05,30,12,23,20.40
2009,05,30,12,24,20.50
2009,05,30,12,25,20.60
2009,05,30,12,26,20.60
2009,05,30,12,27,20.60
2009,05,30,12,28,20.40
2009,05,30,12,29,20.30
2009,05,30,12,30,20.40
2009,05,30,12,31,20.40
2009,05,30,12,32,20.40
2009,05,30,12,33,20.50
2009,05,30,12,34,20.60
2009,05,30,12,35,20.70
2009,05,30,12,36,20.80
2009,05,30,12,37,20.80
2009,05,30,12,38,20.80
2009,05,30,12,39,20.70
2009,05,30,12,40,20.70
2009,05,30,12,41,20.70
2009,05,30,12,42,20.80
2009,05,30,12,43,20.90
2009,05,30,12,44,21.00
2009,05,30,12,45,21.10
2009,05,30,12,46,21.10
2009,05,30,12,47,21.00
2009,05,30,12,48,20.90
2009,05,30,12,49,20.90
2009,05,30,12,50,20.90
2009,05,30,12,51,20.80
2009,05,30,12,52,20.80
2009,05,30,12,53,20.80
2009,05,30,12,54,20.80
2009,05,30,12,55,20.80
2009,05,30,12,56,20.70
2009,05,30,12,57,20.80
2009,05,30,12,58,20.80
2009,05,30,12,59,20.80
2009,05,30,13,00,20.80
2009,05,30,13,01,20.70
2009,05,30,13,02,20.60
2009,05,30,13,03,20.60
2009,05,30,13,04,20.50
2009,05,30,13,05,20.50
2009,05,30,13,06,20.50
2009,05,30,13,07,20.50
2009,05,30,13,08,20.60
2009,05,30,13,09,20.60
2009,05,30,13,10,20.80
2009,05,30,13,11,20.90
2009,05,30,13,12,20.90
2009,05,30,13,13,20.80
2009,05,30,13,14,20.80
2009,05,30,13,15,20.80
2009,05,30,13,16,20.80
2009,05,30,13,17,20.80
2009,05,30,13,18,20.90
2009,05,30,13,19,21.00
2009,05,30,13,20,21.00
2009,05,30,13,21,21.00
2009,05,30,13,22,21.00
2009,05,30,13,23,21.00
2009,05,30,13,24,21.00
2009,05,30,13,25,21.00
2009,05,30,13,26,21.10
2009,05,30,13,27,21.20
2009,05,30,13,28,21.10
2009,05,30,13,29,21.20
2009,05,30,13,30,21.20
2009,05,30,13,31,21.20
2009,05,30,13,32,21.30
2009,05,30,13,33,21.40
2009,05,30,13,34,21.50
2009,05,30,13,35,21.60
2009,05,30,13,36,21.50
2009,05,30,13,37,21.40
2009,05,30,13,38,21.30
2009,05,30,13,39,21.30
2009,05,30,13,40,21.30
2009,05,30,13,41,21.30
2009,05,30,13,42,21.30
2009,05,30,13,43,21.30
2009,05,30,13,44,21.30
2009,05,30,13,45,21.20
2009,05,30,13,46,21.20
2009,05,30,13,47,21.30
2009,05,30,13,48,21.30
2009,05,30,13,49,21.30
2009,05,30,13,50,21.20
2009,05,30,13,51,21.10
2009,05,30,13,52,21.00
2009,05,30,13,53,20.90
2009,05,30,13,54,21.00
2009,05,30,13,55,21.10
2009,05,30,13,56,21.20
2009,05,30,13,57,21.40
2009,05,30,13,58,21.50
2009,05,30,13,59,21.60
2009,05,30,14,00,21.70
2009,05,30,14,01,21.80
2009,05,30,14,02,21.90
2009,05,30,14,03,21.90
2009,05,30,14,04,22.00
2009,05,30,14,05,22.10
2009,05,30,14,06,22.10
2009,05,30,14,07,22.10
2009,05,30,14,08,21.90
2009,05,30,14,09,21.80
2009,05,30,14,10,21.50
2009,05,30,14,11,21.40
2009,05,30,14,12,21.30
2009,05,30,14,13,21.30
2009,05,30,14,14,21.30
2009,05,30,14,15,21.40
2009,05,30,14,16,21.50
2009,05,30,14,17,21.70
2009,05,30,14,18,21.80
2009,05,30,14,19,21.90
2009,05,30,14,20,22.00
2009,05,30,14,21,22.00
2009,05,30,14,22,22.10
2009,05,30,14,23,22.10
2009,05,30,14,24,22.10
2009,05,30,14,25,22.00
2009,05,30,14,26,22.00
2009,05,30,14,27,22.10
2009,05,30,14,28,22.10
2009,05,30,14,29,22.30
2009,05,30,14,30,22.40
2009,05,30,14,31,22.50
2009,05,30,14,32,22.60
2009,05,30,14,33,22.60
2009,05,30,14,34,22.50
2009,05,30,14,35,22.40
2009,05,30,14,36,22.40
2009,05,30,14,37,22.30
2009,05,30,14,38,22.20
2009,05,30,14,39,22.10
2009,05,30,14,40,22.00
2009,05,30,14,41,21.80
2009,05,30,14,42,21.70
2009,05,30,14,43,21.60
2009,05,30,14,44,21.50
2009,05,30,14,45,21.60
2009,05,30,14,46,21.60
2009,05,30,14,47,21.60
2009,05,30,14,48,21.50
2009,05,30,14,49,21.50
2009,05,30,14,50,21.60
2009,05,30,14,51,21.60
2009,05,30,14,52,21.60
2009,05,30,14,53,21.60
2009,05,30,14,54,21.60
2009,05,30,14,55,21.60
2009,05,30,14,56,21.70
2009,05,30,14,57,21.70
2009,05,30,14,58,21.80
2009,05,30,14,59,21.80
2009,05,30,15,00,21.90
2009,05,30,15,01,22.00
2009,05,30,15,02,22.10
2009,05,30,15,03,22.00
2009,05,30,15,04,21.90
2009,05,30,15,05,21.80
2009,05,30,15,06,21.80
2009,05,30,15,07,21.80
2009,05,30,15,08,21.80
2009,05,30,15,09,21.80
2009,05,30,15,10,21.90
2009,05,30,15,11,21.80
2009,05,30,15,12,21.70
2009,05,30,15,13,21.60
2009,05,30,15,14,21.70
2009,05,30,15,15,21.80
2009,05,30,15,16,21.80
2009,05,30,15,17,21.80
2009,05,30,15,18,21.80
2009,05,30,15,19,21.90
2009,05,30,15,20,22.00
2009,05,30,15,21,22.00
2009,05,30,15,22,22.10
2009,05,30,15,23,22.00
2009,05,30,15,24,21.90
2009,05,30,15,25,21.80
2009,05,30,15,26,21.80
2009,05,30,15,27,21.90
2009,05,30,15,28,21.90
2009,05,30,15,29,22.00
2009,05,30,15,30,22.10
2009,05,30,15,31,22.20
2009,05,30,15,32,22.20
2009,05,30,15,33,22.10
2009,05,30,15,34,22.10
2009,05,30,15,35,22.10
2009,05,30,15,36,22.10
2009,05,30,15,37,22.10
2009,05,30,15,38,22.20
2009,05,30,15,39,22.20
2009,05,30,15,40,22.10
2009,05,30,15,41,22.10
2009,05,30,15,42,22.10
2009,05,30,15,43,22.20
2009,05,30,15,44,22.20
2009,05,30,15,45,22.30
2009,05,30,15,46,22.30
2009,05,30,15,47,22.30
2009,05,30,15,48,22.30
2009,05,30,15,49,22.40
2009,05,30,15,50,22.40
2009,05,30,15,51,22.40
2009,05,30,15,52,22.20
2009,05,30,15,53,22.10
2009,05,30,15,54,22.00
2009,05,30,15,55,22.00
2009,05,30,15,56,21.90
2009,05,30,15,57,22.00
2009,05,30,15,58,22.00
2009,05,30,15,59,22.10
2009,05,30,16,00,22.10
2009,05,30,16,01,22.20
2009,05,30,16,02,22.20
2009,05,30,16,03,22.20
2009,05,30,16,04,22.20
2009,05,30,16,05,22.20
2009,05,30,16,06,22.20
2009,05,30,16,07,22.30
2009,05,30,16,08,22.30
2009,05,30,16,09,22.30
2009,05,30,16,10,22.30
2009,05,30,16,11,22.20
2009,05,30,16,12,22.20
2009,05,30,16,13,22.10
2009,05,30,16,14,22.10
2009,05,30,16,15,22.00
2009,05,30,16,16,22.00
2009,05,30,16,17,21.90
2009,05,30,16,18,21.90
2009,05,30,16,19,21.90
2009,05,30,16,20,21.90
2009,05,30,16,21,21.90
2009,05,30,16,22,22.00
2009,05,30,16,23,22.00
2009,05,30,16,24,21.90
2009,05,30,16,25,21.80
2009,05,30,16,26,21.80
2009,05,30,16,27,21.70
2009,05,30,16,28,21.60
2009,05,30,16,29,21.60
2009,05,30,16,30,21.50
2009,05,30,16,31,21.40
2009,05,30,16,32,21.30
2009,05,30,16,33,21.40
2009,05,30,16,34,21.40
2009,05,30,16,35,21.40
2009,05,30,16,36,21.50
2009,05,30,16,37,21.50
2009,05,30,16,38,21.50
2009,05,30,16,39,21.50
2009,05,30,16,40,21.50
2009,05,30,16,41,21.50
2009,05,30,16,42,21.60
2009,05,30,16,43,21.70
2009,05,30,16,44,21.70
2009,05,30,16,45,21.80
2009,05,30,16,46,21.70
2009,05,30,16,47,21.70
2009,05,30,16,48,21.70
2009,05,30,16,49,21.70
2009,05,30,16,50,21.70
2009,05,30,16,51,21.70
2009,05,30,16,52,21.70
2009,05,30,16,53,21.70
2009,05,30,16,54,21.70
2009,05,30,16,55,21.70
2009,05,30,16,56,21.70
2009,05,30,16,57,21.70
2009,05,30,16,58,21.80
2009,05,30,16,59,21.80
2009,05,30,17,00,21.80
2009,05,30,17,01,21.80
2009,05,30,17,02,21.70
2009,05,30,17,03,21.70
2009,05,30,17,04,21.60
2009,05,30,17,05,21.60
2009,05,30,17,06,21.50
2009,05,30,17,07,21.50
2009,05,30,17,08,21.40
2009,05,30,17,09,21.40
2009,05,30,17,10,21.40
2009,05,30,17,11,21.40
2009,05,30,17,12,21.30
2009,05,30,17,13,21.30
2009,05,30,17,14,21.30
2009,05,30,17,15,21.20
2009,05,30,17,16,21.10
2009,05,30,17,17,21.00
2009,05,30,17,18,20.90
2009,05,30,17,19,20.90
2009,05,30,17,20,20.80
2009,05,30,17,21,20.80
2009,05,30,17,22,20.80
2009,05,30,17,23,20.80
2009,05,30,17,24,20.80
2009,05,30,17,25,20.80
2009,05,30,17,26,20.80
2009,05,30,17,27,20.80
2009,05,30,17,28,20.80
2009,05,30,17,29,20.80
2009,05,30,17,30,20.80
2009,05,30,17,31,20.80
2009,05,30,17,32,20.70
2009,05,30,17,33,20.70
2009,05,30,17,34,20.70
2009,05,30,17,35,20.70
2009,05,30,17,36,20.70
2009,05,30,17,37,20.70
2009,05,30,17,38,20.70
2009,05,30,17,39,20.70
2009,05,30,17,40,20.60
2009,05,30,17,41,20.60
2009,05,30,17,42,20.60
2009,05,30,17,43,20.60
2009,05,30,17,44,20.70
2009,05,30,17,45,20.70
2009,05,30,17,46,20.70
2009,05,30,17,47,20.70
2009,05,30,17,48,20.70
2009,05,30,17,49,20.70
2009,05,30,17,50,20.70
2009,05,30,17,51,20.70
2009,05,30,17,52,20.70